Talkeetna, AK

5:22 AM AKDT on October 17, 2017 (GMT -0800)
Talkeetna

Weather History for PATK - February, 2013

Change the Weather History Date:

Monday, February 11, 2013

  Actual Average Record
Temperature  
Mean Temperature 20 °F -  
Max Temperature 32 °F 26 °F 45 °F (2006)
Min Temperature 8 °F 8 °F -41 °F (1990)
Degree Days  
Heating Degree Days 45    
Moisture  
Dew Point 23 °F    
Average Humidity 90    
Maximum Humidity 100    
Minimum Humidity 80    
Precipitation  
Precipitation 0.01 in - - ()
Snow  
Snow 0.00 in - - ()
Snow Depth 30.00 in    
Sea Level Pressure  
Sea Level Pressure 29.61 in    
Wind  
Wind Speed 5 mph (South)    
Max Wind Speed 10 mph    
Max Gust Speed 17 mph    
Visibility 5 miles    
Events Snow    
Averages and records for this station are not official NWS values.
T = Trace of Precipitation, MM = Missing Value Source: NWS Daily Summary

Daily Weather History Graph

Daily Weather History Graph

Search for Another Location

Airport or City:

Trip Planner

Search our weather history database for the weather conditions in past years. The results will help you decide how hot, cold, wet, or windy it might be!

Date:

Astronomy

Feb. 11, 2013 Rise Set
Actual Time 8:57 AM AKST 5:32 PM AKST
Civil Twilight 8:09 AM AKST 6:21 PM AKST
Nautical Twilight 7:16 AM AKST 7:14 PM AKST
Astronomical Twilight 6:24 AM AKST 8:05 PM AKST
Moon 8:40 AM AKST (2/11) 8:37 PM AKST (2/11)
Length of Visible Light 10h 11m
Length of Day
8h 34m
Waxing Crescent, 3% of the Moon is Illuminated
Feb 11
Waxing Crescent
Feb 17
First Quarter
Feb 25
Full
Mar 4
Last Quarter
Mar 11
New

Hourly Weather History & Observations

Time (AKST) Temp. Windchill Dew Point Humidity Pressure Visibility Wind Dir Wind Speed Gust Speed Precip Events Conditions
12:01 AM 32.0 °F - 30.2 °F 93% 29.46 in 3.0 mi Calm Calm - 0.00 in Snow Light Snow
12:12 AM 32.0 °F 28.7 °F 30.2 °F 93% 29.46 in 1.8 mi SSE 3.5 mph - 0.01 in Snow Light Snow
12:40 AM 32.0 °F 26.4 °F 30.2 °F 93% 29.47 in 2.0 mi South 5.8 mph - 0.02 in Snow Light Snow
12:53 AM 32.0 °F 24.8 °F 30.9 °F 96% 29.49 in 4.0 mi South 8.1 mph - 0.02 in Snow Light Snow
1:02 AM 32.0 °F 24.8 °F 30.2 °F 93% 29.48 in 3.0 mi South 8.1 mph - 0.00 in Snow Light Snow
1:12 AM 30.2 °F 24.3 °F 30.2 °F 100% 29.48 in 2.5 mi South 5.8 mph - 0.00 in Snow Light Snow
1:21 AM 30.2 °F 23.4 °F 30.2 °F 100% 29.49 in 1.2 mi South 6.9 mph - 0.01 in Snow Light Snow
1:53 AM 30.9 °F 24.3 °F 30.0 °F 96% 29.51 in 1.2 mi South 6.9 mph - 0.02 in Snow Light Snow
2:00 AM 30.2 °F 25.4 °F 30.2 °F 100% 29.49 in 2.0 mi South 4.6 mph - 0.00 in Snow Light Snow
2:13 AM 30.2 °F 25.4 °F 30.2 °F 100% 29.50 in 1.5 mi South 4.6 mph - 0.01 in Snow Light Snow
2:48 AM 30.2 °F 24.3 °F 30.2 °F 100% 29.50 in 1.2 mi South 5.8 mph - 0.02 in Snow Light Snow
3:00 AM 30.2 °F 25.4 °F 30.2 °F 100% 29.50 in 2.5 mi South 4.6 mph - 0.00 in Snow Light Snow
3:21 AM 30.2 °F 25.4 °F 28.4 °F 93% 29.51 in 1.8 mi South 4.6 mph - 0.00 in Snow Light Snow
3:38 AM 30.2 °F 24.3 °F 30.2 °F 100% 29.51 in 2.0 mi SSE 5.8 mph - 0.00 in Snow Light Snow
3:53 AM 30.9 °F 26.2 °F 30.0 °F 96% 29.53 in 2.5 mi SSE 4.6 mph - 0.01 in Snow Light Snow
4:02 AM 30.2 °F 24.3 °F 28.4 °F 93% 29.51 in 3.0 mi SSE 5.8 mph - 0.00 in Snow Light Snow
4:12 AM 30.2 °F 23.4 °F 28.4 °F 93% 29.51 in 4.0 mi SSE 6.9 mph - 0.00 in Snow Light Snow
4:53 AM 30.0 °F 24.1 °F 28.9 °F 96% 29.54 in 7.0 mi South 5.8 mph - 0.00 in Snow Light Snow
5:23 AM 30.2 °F 22.6 °F 28.4 °F 93% 29.52 in 10.0 mi South 8.1 mph - 0.00 in   Overcast
5:53 AM 30.0 °F 24.1 °F 28.0 °F 92% 29.55 in 10.0 mi South 5.8 mph - 0.00 in   Overcast
6:14 AM 30.2 °F 24.3 °F 28.4 °F 93% 29.54 in 2.0 mi South 5.8 mph - 0.00 in Snow Light Snow
6:26 AM 30.2 °F 21.9 °F 26.6 °F 86% 29.54 in 6.0 mi South 9.2 mph 17.3 mph 0.00 in   Overcast
6:42 AM 28.4 °F 19.7 °F 28.4 °F 100% 29.55 in 10.0 mi South 9.2 mph - 0.00 in   Overcast
6:53 AM 28.0 °F 20.8 °F 25.0 °F 88% 29.57 in 10.0 mi South 6.9 mph - 0.00 in   Overcast
7:05 AM 28.4 °F 19.1 °F 24.8 °F 86% 29.56 in 10.0 mi South 10.4 mph - N/A   Overcast
7:17 AM 28.4 °F 22.2 °F 24.8 °F 86% 29.56 in 7.0 mi South 5.8 mph - 0.00 in Snow Light Snow
7:53 AM 27.0 °F 19.5 °F 24.1 °F 89% 29.60 in 6.0 mi South 6.9 mph 17.3 mph 0.00 in Snow Light Snow
8:05 AM 26.6 °F 17.5 °F 24.8 °F 93% 29.58 in 8.0 mi South 9.2 mph - 0.00 in Snow Light Snow
8:31 AM 26.6 °F 18.2 °F 23.0 °F 86% 29.59 in 2.5 mi South 8.1 mph - 0.00 in Snow Light Snow
8:53 AM 26.1 °F 19.4 °F 24.1 °F 92% 29.62 in 2.5 mi South 5.8 mph - 0.00 in Snow Light Snow
9:13 AM 26.6 °F 18.2 °F 23.0 °F 86% 29.60 in 3.0 mi South 8.1 mph - 0.00 in Snow Light Snow
9:20 AM 26.6 °F 18.2 °F 23.0 °F 86% 29.60 in 3.0 mi South 8.1 mph - 0.00 in Snow Light Snow
9:45 AM 24.8 °F 16.1 °F 21.2 °F 86% 29.62 in 3.0 mi South 8.1 mph - 0.00 in Snow Light Snow
9:53 AM 25.0 °F 15.5 °F 21.9 °F 88% 29.64 in 1.2 mi South 9.2 mph - 0.00 in Snow Light Snow
10:16 AM 24.8 °F 16.1 °F 21.2 °F 86% 29.63 in 3.0 mi South 8.1 mph 16.1 mph 0.00 in Snow Light Snow
10:21 AM 24.8 °F 14.6 °F 21.2 °F 86% 29.63 in 1.8 mi South 10.4 mph - 0.00 in Snow Light Snow
10:31 AM 24.8 °F 16.9 °F 21.2 °F 86% 29.63 in 2.0 mi South 6.9 mph - 0.00 in Snow Light Snow
10:34 AM 24.8 °F 17.9 °F 21.2 °F 86% 29.63 in 3.0 mi South 5.8 mph - 0.00 in Snow Light Snow
10:53 AM 24.1 °F 17.0 °F 21.0 °F 88% 29.66 in 10.0 mi South 5.8 mph - 0.00 in   Overcast
11:53 AM 23.0 °F 15.8 °F 19.9 °F 88% 29.69 in 2.0 mi South 5.8 mph - 0.00 in Snow Light Snow
12:12 PM 23.0 °F 17.0 °F 19.4 °F 86% 29.67 in 3.0 mi South 4.6 mph - 0.00 in Snow Light Snow
12:34 PM 24.8 °F 19.1 °F 19.4 °F 80% 29.67 in 3.0 mi South 4.6 mph - 0.00 in Snow Light Snow
12:53 PM 24.1 °F 19.7 °F 19.9 °F 84% 29.69 in 7.0 mi South 3.5 mph - 0.00 in Snow Light Snow
1:53 PM 24.1 °F 15.2 °F 21.0 °F 88% 29.70 in 3.0 mi South 8.1 mph - 0.00 in Snow Light Snow
1:56 PM 24.8 °F 15.3 °F 19.4 °F 80% 29.68 in 1.8 mi South 9.2 mph - 0.00 in Snow Light Snow
2:16 PM 24.8 °F 16.9 °F 21.2 °F 86% 29.69 in 1.0 mi South 6.9 mph - 0.00 in Snow Light Snow
2:27 PM 24.8 °F 17.9 °F 21.2 °F 86% 29.69 in 1.0 mi South 5.8 mph - 0.01 in Snow Light Snow
2:53 PM 24.1 °F 16.0 °F 21.0 °F 88% 29.72 in 1.0 mi South 6.9 mph - 0.01 in Snow Light Snow
2:56 PM 24.8 °F 17.9 °F 21.2 °F 86% 29.70 in 1.5 mi South 5.8 mph - 0.00 in Snow Light Snow
3:04 PM 24.8 °F 16.9 °F 19.4 °F 80% 29.70 in 3.0 mi South 6.9 mph - 0.00 in Snow Light Snow
3:16 PM 24.8 °F 15.3 °F 19.4 °F 80% 29.70 in 3.0 mi South 9.2 mph - 0.00 in Snow Light Snow
3:53 PM 24.1 °F 18.2 °F 21.0 °F 88% 29.73 in 10.0 mi South 4.6 mph - 0.00 in   Overcast
4:23 PM 24.8 °F 17.9 °F 19.4 °F 80% 29.71 in 10.0 mi South 5.8 mph - N/A   Overcast
4:53 PM 24.1 °F 17.0 °F 19.9 °F 84% 29.74 in 10.0 mi SSW 5.8 mph - N/A   Overcast
5:05 PM 24.8 °F 20.5 °F 19.4 °F 80% 29.72 in 10.0 mi SW 3.5 mph - N/A   Overcast
5:53 PM 23.0 °F - 19.9 °F 88% 29.75 in 10.0 mi Calm Calm - N/A   Overcast
6:53 PM 18.0 °F - 17.1 °F 96% 29.77 in 10.0 mi Calm Calm - N/A   Partly Cloudy
7:53 PM 15.1 °F - 12.9 °F 91% 29.79 in 10.0 mi Calm Calm - N/A   Overcast
8:53 PM 12.9 °F - 10.9 °F 92% 29.79 in 10.0 mi Calm Calm - N/A   Partly Cloudy
9:53 PM 9.0 °F - 6.1 °F 88% 29.79 in 10.0 mi Calm Calm - N/A   Clear
10:53 PM 8.1 °F - 5.0 °F 87% 29.79 in 10.0 mi Calm Calm - N/A   Mostly Cloudy
11:53 PM 9.0 °F - 6.1 °F 88% 29.79 in 10.0 mi Calm Calm - N/A   Partly Cloudy